Eau Claire, WI

2:53 PM CST on February 06, 2016 (GMT -0600)
Chippewa Valley Regional

Weather History for KEAU - December, 2012

Change the Weather History Date:

Thursday, December 20, 2012

  Actual Average Record
Temperature  
Mean Temperature 24 °F 17 °F  
Max Temperature 30 °F 26 °F 50 °F (1967)
Min Temperature 17 °F 9 °F -28 °F (1983)
Degree Days  
Heating Degree Days 41 48  
Month to date heating degree days 726 892  
Since 1 July heating degree days 2447 2638  
Cooling Degree Days 0 0  
Month to date cooling degree days 0 0  
Year to date cooling degree days 830 579  
Moisture  
Dew Point 23 °F    
Average Humidity 82    
Maximum Humidity 92    
Minimum Humidity 71    
Precipitation  
Precipitation 0.26 in 0.03 in 0.65 in (1902)
Month to date precipitation 1.78 0.70  
Year to date precipitation 24.19 30.68  
Snow  
Snow 4.00 in 0.30 in 4.40 in (2008)
Month to date snowfall 19.4 6.1  
Since 1 July snowfall 20.3 12.4  
Snow Depth 4.00 in    
Sea Level Pressure  
Sea Level Pressure 29.80 in    
Wind  
Wind Speed 14 mph (North)    
Max Wind Speed 24 mph    
Max Gust Speed 36 mph    
Visibility 4 miles    
Events Snow    
T = Trace of Precipitation, MM = Missing Value Source: NWS Daily Summary

Daily Weather History Graph

Daily Weather History Graph

Search for Another Location

Airport or City:

Trip Planner

Search our weather history database for the weather conditions in past years. The results will help you decide how hot, cold, wet, or windy it might be!

Date:

Astronomy

Dec. 20, 2012 Rise Set
Actual Time 7:40 AM CST 4:27 PM CST
Civil Twilight 7:06 AM CST 5:01 PM CST
Nautical Twilight 6:29 AM CST 5:38 PM CST
Astronomical Twilight 5:53 AM CST 6:14 PM CST
Moon 11:58 AM CST (12/20) 12:13 AM CST (12/20)
Length of Visible Light 9h 54m
Length of Day
8h 46m
First Quarter, 55% of the Moon is Illuminated
Dec 20
First Quarter
Dec 28
Full
Jan 4
Last Quarter
Jan 11
New
Jan 18
First Quarter

Hourly Weather History & Observations

Time (CST) Temp. Windchill Dew Point Humidity Pressure Visibility Wind Dir Wind Speed Gust Speed Precip Events Conditions
12:56 AM 30.0 °F 24.1 °F 26.1 °F 85% 29.94 in 5.0 mi NNE 5.8 mph - 0.00 in Snow Light Snow
1:27 AM 30.2 °F 22.6 °F 26.6 °F 86% 29.89 in 2.5 mi NE 8.1 mph - 0.00 in Snow Light Snow
1:44 AM 28.4 °F 21.2 °F 26.6 °F 93% 29.89 in 1.5 mi NNE 6.9 mph - 0.00 in Snow Light Snow
1:56 AM 28.9 °F 22.8 °F 27.0 °F 92% 29.93 in 1.5 mi NNE 5.8 mph - 0.00 in Snow Light Snow
2:16 AM 28.4 °F 22.2 °F 26.6 °F 93% 29.89 in 1.0 mi NNE 5.8 mph - 0.01 in Snow Light Snow
2:28 AM 28.4 °F 22.2 °F 26.6 °F 93% 29.89 in 0.8 mi NNE 5.8 mph - 0.03 in Snow Light Snow
2:56 AM 28.9 °F 21.1 °F 27.0 °F 92% 29.90 in 0.8 mi NNE 8.1 mph - 0.06 in Snow Light Snow
3:16 AM 28.4 °F 21.2 °F 26.6 °F 93% 29.86 in 1.0 mi NNE 6.9 mph - 0.02 in Snow Light Snow
3:23 AM 28.4 °F 21.2 °F 26.6 °F 93% 29.86 in 0.8 mi NNE 6.9 mph - 0.03 in Snow Light Snow
3:54 AM 28.4 °F 20.4 °F 26.6 °F 93% 29.84 in 1.0 mi NNE 8.1 mph - 0.05 in Snow Light Snow
3:56 AM 28.9 °F 21.9 °F 27.0 °F 92% 29.88 in 1.0 mi NNE 6.9 mph - 0.05 in Snow Light Snow
4:16 AM 28.4 °F 21.2 °F 26.6 °F 93% 29.84 in 1.0 mi NE 6.9 mph - 0.01 in Snow Light Snow
4:36 AM 28.4 °F 21.2 °F 26.6 °F 93% 29.83 in 1.0 mi NNE 6.9 mph - 0.03 in Snow Light Snow
4:56 AM 28.9 °F 22.8 °F 27.0 °F 92% 29.86 in 1.2 mi NNE 5.8 mph - 0.04 in Snow Light Snow
5:09 AM 28.4 °F 22.2 °F 26.6 °F 93% 29.82 in 1.2 mi NNE 5.8 mph - 0.01 in Snow Light Snow
5:56 AM 28.9 °F 21.1 °F 26.1 °F 89% 29.83 in 1.2 mi North 8.1 mph - 0.03 in Snow Light Snow
6:13 AM 28.4 °F 20.4 °F 26.6 °F 93% 29.80 in 1.5 mi North 8.1 mph - 0.00 in Snow Light Snow
6:24 AM 28.4 °F 19.7 °F 26.6 °F 93% 29.79 in 2.5 mi North 9.2 mph - 0.00 in Snow Light Snow
6:46 AM 28.4 °F 19.7 °F 26.6 °F 93% 29.78 in 1.8 mi North 9.2 mph - 0.01 in Snow Light Snow
6:56 AM 28.9 °F 20.4 °F 26.1 °F 89% 29.81 in 1.5 mi North 9.2 mph - 0.01 in Snow Light Snow
7:09 AM 28.4 °F 19.7 °F 26.6 °F 93% 29.77 in 1.8 mi North 9.2 mph - 0.00 in Snow Light Snow
7:19 AM 28.4 °F 19.1 °F 26.6 °F 93% 29.77 in 2.0 mi North 10.4 mph - 0.00 in Snow Light Snow
7:37 AM 28.4 °F 19.1 °F 26.6 °F 93% 29.77 in 1.8 mi North 10.4 mph - 0.00 in Snow Light Snow
7:43 AM 28.4 °F 18.5 °F 26.6 °F 93% 29.76 in 1.8 mi North 11.5 mph - 0.00 in Snow Light Snow
7:46 AM 28.4 °F 18.5 °F 26.6 °F 93% 29.76 in 2.0 mi North 11.5 mph - 0.00 in Snow Light Snow
7:51 AM 28.4 °F 18.0 °F 26.6 °F 93% 29.76 in 1.8 mi North 12.7 mph - 0.00 in Snow Light Snow
7:56 AM 28.0 °F 18.1 °F 26.1 °F 92% 29.80 in 1.5 mi North 11.5 mph - 0.00 in Snow Light Snow
8:35 AM 28.4 °F 15.8 °F 24.8 °F 86% 29.75 in 0.8 mi North 18.4 mph 25.3 mph 0.01 in Snow Light Snow
8:42 AM 28.4 °F 17.0 °F 24.8 °F 86% 29.75 in 1.0 mi North 15.0 mph 25.3 mph 0.01 in Snow Light Snow
8:56 AM 28.9 °F 17.7 °F 25.0 °F 85% 29.78 in 1.0 mi North 15.0 mph 20.7 mph 0.01 in Snow Light Snow
9:56 AM 28.0 °F 17.0 °F 24.1 °F 85% 29.77 in 1.2 mi North 13.8 mph - 0.00 in Snow Light Snow
10:53 AM 26.6 °F 15.2 °F 23.0 °F 86% 29.73 in 0.8 mi NNW 13.8 mph 21.9 mph 0.00 in Snow Light Snow
10:56 AM 27.0 °F 13.9 °F 23.0 °F 85% 29.76 in 0.8 mi North 18.4 mph 25.3 mph 0.00 in Snow Light Snow
11:07 AM 26.6 °F 14.3 °F 23.0 °F 86% 29.72 in 1.0 mi North 16.1 mph 23.0 mph 0.01 in Snow Light Snow
11:56 AM 27.0 °F 14.3 °F 21.9 °F 81% 29.73 in 1.2 mi North 17.3 mph 24.2 mph 0.01 in Snow Light Snow
12:51 PM 26.6 °F 14.7 °F 21.2 °F 80% 29.67 in 2.5 mi North 15.0 mph 25.3 mph 0.00 in Snow Light Snow
12:56 PM 27.0 °F 13.5 °F 21.9 °F 81% 29.70 in 2.5 mi North 19.6 mph 26.5 mph 0.00 in Snow Light Snow
1:03 PM 26.6 °F 13.1 °F 21.2 °F 80% 29.67 in 3.0 mi North 19.6 mph 28.8 mph 0.00 in Snow Light Snow
1:56 PM 27.0 °F 13.2 °F 21.0 °F 78% 29.69 in 8.0 mi North 20.7 mph 27.6 mph 0.00 in   Mostly Cloudy
2:56 PM 28.0 °F 17.0 °F 21.0 °F 75% 29.70 in 10.0 mi NNW 13.8 mph 27.6 mph N/A   Overcast
3:13 PM 26.6 °F 13.4 °F 21.2 °F 80% 29.67 in 6.0 mi NNW 18.4 mph 28.8 mph N/A   Haze
3:56 PM 27.0 °F 13.5 °F 21.0 °F 78% 29.72 in 8.0 mi NNW 19.6 mph 29.9 mph 0.00 in   Overcast
4:56 PM 27.0 °F 14.7 °F 19.9 °F 75% 29.75 in 10.0 mi NNW 16.1 mph 28.8 mph N/A   Overcast
5:56 PM 26.1 °F 12.7 °F 19.0 °F 75% 29.78 in 10.0 mi NNW 18.4 mph 31.1 mph 0.00 in   Overcast
6:56 PM 25.0 °F 11.3 °F 18.0 °F 75% 29.81 in 10.0 mi NNW 18.4 mph 29.9 mph N/A   Overcast
7:56 PM 24.1 °F 9.8 °F 17.1 °F 75% 29.83 in 10.0 mi NNW 19.6 mph 32.2 mph N/A   Overcast
8:56 PM 23.0 °F 10.6 °F 16.0 °F 74% 29.84 in 10.0 mi NNW 13.8 mph 25.3 mph N/A   Overcast
9:56 PM 21.0 °F 7.6 °F 14.0 °F 74% 29.87 in 10.0 mi NNW 15.0 mph 23.0 mph N/A   Partly Cloudy
10:56 PM 19.0 °F 5.0 °F 12.0 °F 74% 29.89 in 10.0 mi NW 15.0 mph - N/A   Scattered Clouds
11:18 PM 19.4 °F 4.1 °F 10.4 °F 68% 29.86 in 10.0 mi NW 18.4 mph 26.5 mph N/A   Mostly Cloudy
11:56 PM 17.1 °F 1.5 °F 10.0 °F 74% 29.92 in 10.0 mi NW 17.3 mph 25.3 mph N/A   Partly Cloudy